Location: Kailua
(21.4020°N, 157.7390°W)
Time: 14:06:38
(UTC-10:00)

Daily predictions for brighter satellites

Satellite Brightness Start Highest point End
(mag) Time Altitude Azimuth Time Altitude Azimuth Time Altitude Azimuth
Landsat 4 3.8 18:06:55 10° N 18:10:43 87° WNW 18:14:30 10° SSW
SJ-7 4.5 18:06:54 10° SSE 18:11:06 89° ENE 18:15:15 10° N
EO 1 Del DPAF 3.4 18:10:12 10° NNE 18:13:55 52° E 18:17:38 10° S
CZ-3 Stage 3 3.2 18:14:43 10° SW 18:15:07 10° SSW 18:15:32 10° SSW
USA 229 DEB 4.5 18:10:28 10° S 18:16:10 30° ESE 18:21:53 10° NE
Cosmos 468 Rocket 4.3 18:12:07 10° NNW 18:17:14 72° WSW 18:22:18 10° S
Atlas 2A Centaur Rocket 4.3 17:44:03 10° W 18:18:09 70° NNW 18:23:20 10° ENE
Cosmos 1782 2.9 18:16:58 10° S 18:20:59 86° W 18:25:01 10° N
YAOGAN 1 2.8 18:19:53 10° SSE 18:24:02 47° ENE 18:28:10 10° N
ERS-2 2.8 18:21:47 10° SE 18:25:05 32° ENE 18:28:23 10° N
ISS -1.9 18:23:27 10° SSE 18:25:38 17° SE 18:27:18 12° E
Cosmos 405 Rocket 2.9 18:23:49 10° S 18:27:33 49° E 18:31:13 10° NNE
Cosmos 1782 Rocket 4.0 18:24:36 10° NNE 18:28:38 37° E 18:32:41 10° SSE
GENESIS II 4.1 18:25:11 10° NNW 18:29:03 68° ENE 18:32:53 10° SSE
CSL-04 Rocket 4.4 18:24:32 10° S 18:29:41 56° WSW 18:34:52 10° NNW
Tiangong 1 2.4 18:29:42 10° W 18:31:55 25° NW 18:34:04 10° NNE
SL-27 R/B 3.0 18:29:25 10° N 18:32:27 32° ENE 18:35:32 10° SE
Meteor 2-6 Rocket 4.1 18:27:13 10° S 18:32:36 82° E 18:38:05 10° N
COSMO-SKYMED 1 2.8 18:30:01 10° N 18:34:20 75° WNW 18:38:39 10° SSW
Thor Agena Rocket 4.5 18:30:04 10° NE 18:34:24 27° E 18:38:44 10° SSE
METEOR-M 4.2 18:29:24 10° SSE 18:34:35 53° ENE 18:39:45 10° N
Cosmos 1763 Rocket 3.5 18:30:06 10° NNW 18:35:16 89° WSW 18:40:20 10° SSE
MONITOR-E 4.5 18:38:00 10° SSE 18:40:52 40° ENE 18:43:44 10° N
Cosmos 2221 Rocket 3.9 18:37:21 10° SSW 18:41:44 67° W 18:46:06 10° N
Cosmos 1891 Rocket 4.4 18:36:17 10° S 18:42:31 80° E 18:48:38 10° N
OAO 3 Rocket 4.5 18:39:55 10° W 18:44:17 31° NNW 18:47:45 15° NE
Cosmos 2082 Rocket 2.9 18:39:34 10° N 18:44:27 29° ENE 18:49:17 10° SE
Meteor 1-20 Rocket 4.3 18:43:32 10° N 18:49:01 76° W 18:54:27 10° S
Cosmos 968 Rocket 3.4 18:47:43 10° S 18:52:50 80° ESE 18:58:01 10° NNE
Cosmos 2084 Rocket 4.4 18:50:10 10° S 18:54:11 31° ESE 18:55:19 27° E
Cosmos 1633 3.2 18:57:00 10° NNW 19:00:36 58° W 19:04:11 10° S
Cosmos 540 Rocket 3.5 18:56:09 10° N 19:01:10 53° ENE 19:06:10 10° SSE
GPS 2-14 Rocket1 2.8 18:57:28 10° WSW 19:01:36 72° S 19:03:04 37° E
Meteor 1-27 Rocket 3.8 18:56:58 10° S 19:02:48 85° W 19:08:44 10° N
GPS 2-18 Rocket1 4.0 18:59:46 10° W 19:03:36 45° SSW 19:05:32 24° SE
Cosmos 2034 Rocket 4.2 18:57:32 10° S 19:03:53 78° W 19:10:16 10° N
Nadezhda 4 Rocket 4.1 19:05:07 10° NNE 19:10:56 45° E 19:16:45 10° SSE
Cosmos 841 Rocket 4.4 19:05:56 10° NNW 19:11:00 50° WSW 19:16:02 10° S
Okean 2 Rocket 3.0 19:06:49 10° N 19:11:20 84° E 19:15:50 10° S
Cosmos 836 Rocket 4.4 19:07:51 10° N 19:13:05 71° ENE 19:18:20 10° SSE
FENGYUN 3A 3.5 19:09:47 10° SSE 19:15:11 81° ENE 19:20:36 10° N
ERBS 3.8 19:16:13 10° NW 19:19:23 37° WSW 19:22:35 10° S
Cosmos 1674 Rocket 3.4 19:18:03 10° S 19:22:26 72° E 19:23:06 59° NE
ALOS 2.4 19:17:59 10° S 19:22:38 73° W 19:27:17 10° NNW
SEDSat Delta rocket 2.6 19:22:07 10° WSW 19:26:12 83° SSE 19:26:12 83° SSE
Meteor 2-20 4.3 19:21:21 10° N 19:27:26 86° E 19:33:29 10° S
Centaur D AC-29 1.1 19:24:50 10° WNW 19:29:03 65° SSW 19:29:25 59° SSE
Cosmos 2369 Rocket 2.1 19:24:19 10° S 19:29:53 66° ESE 19:30:54 55° NE
SPOT 3 Rocket 4.2 19:25:14 10° S 19:30:20 56° WSW 19:35:27 10° NNW
Centaur D AC-28 3.9 19:28:30 10° WNW 19:34:06 62° N 19:42:48 34° ENE
Centaur D AC-28 3.9 19:28:31 10° WNW 19:34:07 62° N 19:42:48 34° ENE
Centaur D AC-28 3.9 19:28:30 10° WNW 19:34:07 62° N 19:42:48 34° ENE
Centaur D AC-28 3.9 19:28:30 10° WNW 19:34:07 62° N 19:42:47 34° ENE
Delta 168 4.0 19:32:56 10° W 19:38:15 65° N 19:39:38 53° NE
Cosmos 2142 Rocket 4.4 19:32:27 10° S 19:38:43 62° E 19:39:23 59° ENE
Cosmos 1833 Rocket 2.8 19:34:12 10° NNW 19:39:48 73° WSW 19:45:24 10° S
NOSS 3-1 (C) 3.1 19:39:39 10° SSW 19:44:46 70° SE 19:44:46 70° SE
GPS 2-12 Rocket1 3.5 19:43:36 10° W 19:47:42 59° SW 19:47:42 59° SW
Aurora 2 Rocket 4.2 19:46:11 10° W 19:50:40 27° SSW 19:51:19 26° SSW
Meteor 1-11 Rocket 4.2 19:48:07 10° NNW 19:53:45 58° W 19:59:16 10° S
Palapa 6 Rocket 4.3 19:48:52 10° SW 19:54:41 53° SSE 19:54:42 53° SSE
Cosmos 1943 Rocket 3.0 19:55:39 10° SSW 19:59:04 40° S 19:59:04 40° S
ISS -0.5 19:59:26 10° W 20:00:00 13° W 20:00:00 13° W
NOSS 3-1 (A) 4.3 20:05:04 10° SSW 20:08:07 35° SSW 20:08:07 35° SSW
Delta 7925 Rocket 4.2 20:07:04 10° WSW 20:12:42 74° W 20:12:42 74° W
Cosmos 2082 Rocket 4.3 20:23:55 10° NW 20:28:15 23° WSW 20:32:33 10° SSW
CZ-4C R/B 4.4 20:22:31 10° NNW 20:25:08 24° NNW 20:25:08 24° NNW
CZ-3A R/B 4.1 20:04:11 10° WSW 20:41:30 72° SSW 20:41:30 72° SSW
